| time (UTC) | temp F | wind direction | speed MPH | gust MPH | rain 1hr in | rain 24hr in | rain mn in | humidity % | barometer mb |
| 20260503213545 | 64 | 229 | 5.0 | 6.0 | 0.00 | 0.01 | 0.01 | 31 | 998.5 |
| 20260503213041 | 64 | 285 | 3.0 | 3.0 | 0.00 | 0.01 | 0.01 | 30 | 998.4 |
| 20260503212538 | 64 | 334 | 3.0 | 3.0 | 0.00 | 0.01 | 0.01 | 32 | 998.5 |
| 20260503212036 | 64 | 7 | 4.0 | 4.0 | 0.00 | 0.01 | 0.01 | 32 | 998.6 |
| 20260503211533 | 64 | 257 | 2.0 | 2.0 | 0.00 | 0.01 | 0.01 | 31 | 998.7 |
| 20260503211028 | 63 | 301 | 2.0 | 4.0 | 0.00 | 0.01 | 0.01 | 31 | 998.8 |
| 20260503210525 | 62 | 292 | 4.0 | 4.0 | 0.00 | 0.01 | 0.01 | 33 | 998.7 |
| 20260503210021 | 62 | 325 | 3.0 | 4.0 | 0.00 | 0.01 | 0.01 | 31 | 998.7 |
| 20260503205518 | 63 | 285 | 4.0 | 4.0 | 0.00 | 0.01 | 0.01 | 31 | 998.9 |
| 20260503205014 | 62 | 42 | 4.0 | 6.0 | 0.00 | 0.01 | 0.01 | 31 | 999.0 |
| 20260503204511 | 62 | 246 | 2.0 | 3.0 | 0.00 | 0.01 | 0.01 | 35 | 998.9 |
| 20260503204008 | 62 | 319 | 3.0 | 6.0 | 0.00 | 0.01 | 0.01 | 32 | 999.2 |
| 20260503203505 | 62 | 323 | 2.0 | 3.0 | 0.00 | 0.01 | 0.01 | 33 | 999.0 |
| 20260503203002 | 63 | 242 | 0.0 | 1.0 | 0.00 | 0.01 | 0.01 | 34 | 999.2 |
| 20260503202500 | 62 | 241 | 2.0 | 2.0 | 0.00 | 0.01 | 0.01 | 33 | 999.2 |
| 20260503201958 | 62 | 291 | 1.0 | 2.0 | 0.00 | 0.01 | 0.01 | 33 | 999.3 |
| 20260503201455 | 62 | 298 | 2.0 | 3.0 | 0.00 | 0.01 | 0.01 | 33 | 999.2 |
| 20260503200953 | 63 | 336 | 1.0 | 2.0 | 0.00 | 0.01 | 0.01 | 33 | 999.5 |
| 20260503200449 | 62 | 272 | 3.0 | 4.0 | 0.00 | 0.01 | 0.01 | 32 | 999.2 |
| 20260503195946 | 63 | 219 | 2.0 | 3.0 | 0.00 | 0.01 | 0.01 | 33 | 999.5 |
| 20260503195443 | 62 | 276 | 1.0 | 3.0 | 0.00 | 0.01 | 0.01 | 35 | 999.6 |
| 20260503194939 | 61 | 5 | 3.0 | 3.0 | 0.00 | 0.01 | 0.01 | 33 | 999.5 |
| 20260503194437 | 62 | 302 | 1.0 | 1.0 | 0.00 | 0.01 | 0.01 | 34 | 999.4 |
| 20260503193932 | 62 | 220 | 2.0 | 4.0 | 0.00 | 0.01 | 0.01 | 36 | 999.7 |
| 20260503193427 | 62 | 309 | 2.0 | 3.0 | 0.00 | 0.01 | 0.01 | 34 | 999.6 |
| 20260503192923 | 62 | 252 | 1.0 | 2.0 | 0.00 | 0.01 | 0.01 | 34 | 999.6 |
| 20260503192420 | 63 | 351 | 2.0 | 2.0 | 0.00 | 0.01 | 0.01 | 35 | 999.7 |
| 20260503191910 | 62 | 281 | 3.0 | 3.0 | 0.00 | 0.01 | 0.01 | 36 | 999.4 |
| 20260503191408 | 62 | 225 | 0.0 | 1.0 | 0.00 | 0.01 | 0.01 | 34 | 999.6 |
| 20260503190904 | 63 | 293 | 1.0 | 1.0 | 0.00 | 0.01 | 0.01 | 37 | 999.8 |
| 20260503190402 | 62 | 274 | 0.0 | 0.0 | 0.00 | 0.01 | 0.01 | 37 | 999.8 |
| 20260503185858 | 61 | 28 | 4.0 | 6.0 | 0.00 | 0.01 | 0.01 | 33 | 999.9 |
| 20260503185355 | 61 | 202 | 6.0 | 9.0 | 0.00 | 0.01 | 0.01 | 32 | 1000.1 |
| 20260503184854 | 62 | 190 | 2.0 | 3.0 | 0.00 | 0.01 | 0.01 | 33 | 999.8 |
| 20260503184350 | 61 | 229 | 3.0 | 3.0 | 0.00 | 0.01 | 0.01 | 35 | 999.9 |
| 20260503183846 | 61 | 323 | 3.0 | 4.0 | 0.00 | 0.01 | 0.01 | 33 | 1000.3 |
| 20260503183344 | 61 | 255 | 2.0 | 2.0 | 0.00 | 0.01 | 0.01 | 36 | 1000.1 |
| 20260503182841 | 61 | 260 | 1.0 | 2.0 | 0.00 | 0.01 | 0.01 | 34 | 1000.3 |
| 20260503182340 | 61 | 228 | 2.0 | 2.0 | 0.00 | 0.01 | 0.01 | 34 | 1000.3 |
| 20260503181837 | 60 | 238 | 2.0 | 2.0 | 0.00 | 0.01 | 0.01 | 34 | 1000.3 |
| 20260503181334 | 60 | 16 | 5.0 | 7.0 | 0.00 | 0.01 | 0.01 | 34 | 1000.3 |
| 20260503180830 | 61 | 37 | 0.0 | 1.0 | 0.00 | 0.01 | 0.01 | 38 | 1000.4 |
| 20260503180328 | 60 | 239 | 2.0 | 3.0 | 0.00 | 0.01 | 0.01 | 36 | 1000.3 |
| 20260503175824 | 60 | 46 | 0.0 | 0.0 | 0.00 | 0.01 | 0.01 | 36 | 1000.5 |
| 20260503175323 | 59 | 359 | 2.0 | 3.0 | 0.00 | 0.01 | 0.01 | 37 | 1000.5 |
| 20260503174818 | 60 | 246 | 2.0 | 2.0 | 0.00 | 0.01 | 0.01 | 34 | 1000.5 |
| 20260503174316 | 60 | 11 | 7.0 | 10.0 | 0.00 | 0.01 | 0.01 | 33 | 1000.6 |
| 20260503173817 | 60 | 237 | 3.0 | 4.0 | 0.00 | 0.01 | 0.01 | 36 | 1000.5 |
| 20260503173313 | 60 | 317 | 0.0 | 1.0 | 0.00 | 0.01 | 0.01 | 43 | 1000.6 |
| 20260503172810 | 60 | 243 | 6.0 | 10.0 | 0.00 | 0.01 | 0.01 | 35 | 1000.9 |
| 20260503172308 | 59 | 336 | 0.0 | 1.0 | 0.00 | 0.01 | 0.01 | 35 | 1000.7 |
| 20260503171803 | 60 | 234 | 2.0 | 3.0 | 0.00 | 0.01 | 0.01 | 35 | 1000.8 |
| 20260503171300 | 60 | 75 | 2.0 | 3.0 | 0.00 | 0.01 | 0.01 | 37 | 1000.9 |
| 20260503170758 | 59 | 191 | 2.0 | 3.0 | 0.00 | 0.01 | 0.01 | 37 | 1000.9 |
| 20260503170254 | 59 | 0 | 3.0 | 6.0 | 0.00 | 0.01 | 0.01 | 36 | 1000.7 |
| 20260503160217 | 56 | 41 | 1.0 | 1.0 | 0.00 | 0.01 | 0.01 | 42 | 1000.8 |
| 20260503150647 | 53 | 294 | 1.0 | 2.0 | 0.00 | 0.01 | 0.01 | 47 | 1000.5 |
| 20260503150143 | 53 | 137 | 1.0 | 1.0 | 0.00 | 0.01 | 0.01 | 48 | 1000.5 |
| 20260503140107 | 50 | 329 | 0.0 | 1.0 | 0.00 | 0.01 | 0.01 | 63 | 1000.5 |
| 20260503131036 | 46 | 241 | 2.0 | 2.0 | 0.00 | 0.01 | 0.01 | 77 | 1000.2 |
| 20260503130533 | 45 | 200 | 0.0 | 1.0 | 0.00 | 0.01 | 0.01 | 79 | 1000.3 |
| 20260503110424 | 31 | 291 | 0.0 | 0.0 | 0.00 | 0.00 | 0.00 | 99 | 999.2 |
| 20260503090304 | 35 | 343 | 0.0 | 0.0 | 0.00 | 0.00 | 0.00 | 99 | 999.9 |
| 20260503081236 | 37 | 327 | 0.0 | 0.0 | 0.00 | 0.00 | 0.00 | 99 | 999.9 |
| 20260503080732 | 37 | 327 | 0.0 | 0.0 | 0.00 | 0.00 | 0.00 | 99 | 1000.1 |
| 20260503080229 | 37 | 327 | 0.0 | 0.0 | 0.00 | 0.00 | 0.00 | 99 | 1000.1 |
| 20260503072706 | 39 | 276 | 0.0 | 0.0 | 0.00 | 0.00 | 0.00 | 99 | 1000.4 |
| 20260503072203 | 40 | 275 | 0.0 | 0.0 | 0.00 | 0.00 | 0.00 | 99 | 1000.7 |
| 20260503071659 | 41 | 276 | 0.0 | 0.0 | 0.00 | 0.00 | 0.00 | 99 | 1000.6 |
| 20260503071156 | 41 | 275 | 0.0 | 0.0 | 0.00 | 0.00 | 0.00 | 99 | 1000.6 |
| 20260503070653 | 41 | 276 | 0.0 | 0.0 | 0.00 | 0.00 | 0.00 | 99 | 1000.5 |
| 20260503070151 | 41 | 277 | 0.0 | 0.0 | 0.00 | 0.00 | 0.00 | 99 | 1000.6 |
| 20260503060115 | 45 | 307 | 0.0 | 0.0 | 0.00 | 0.00 | 0.00 | 97 | 1001.2 |
| 20260503055107 | 45 | 341 | 0.0 | 0.0 | 0.00 | 0.00 | 0.00 | 97 | 1001.1 |
| 20260503054602 | 45 | 302 | 0.0 | 0.0 | 0.00 | 0.00 | 0.00 | 97 | 1001.2 |
| 20260503054100 | 46 | 278 | 0.0 | 0.0 | 0.00 | 0.00 | 0.00 | 97 | 1001.2 |
| 20260503053558 | 46 | 274 | 0.0 | 0.0 | 0.00 | 0.00 | 0.00 | 96 | 1001.2 |
| 20260503053055 | 46 | 274 | 0.0 | 0.0 | 0.00 | 0.00 | 0.00 | 97 | 1001.2 |
| 20260503052552 | 46 | 274 | 0.0 | 0.0 | 0.00 | 0.00 | 0.00 | 97 | 1001.4 |
| 20260503052048 | 46 | 262 | 0.0 | 0.0 | 0.00 | 0.00 | 0.00 | 96 | 1001.6 |
| 20260503051544 | 46 | 262 | 0.0 | 0.0 | 0.00 | 0.00 | 0.00 | 96 | 1001.4 |
| 20260503051042 | 47 | 150 | 0.0 | 0.0 | 0.00 | 0.00 | 0.00 | 95 | 1001.3 |
| 20260503050537 | 47 | 16 | 0.0 | 0.0 | 0.00 | 0.00 | 0.00 | 94 | 1001.6 |
| 20260503050035 | 46 | 351 | 1.0 | 1.0 | 0.00 | 0.00 | 0.00 | 96 | 1001.6 |
| 20260503045532 | 47 | 143 | 0.0 | 0.0 | 0.00 | 0.01 | 0.01 | 96 | 1001.3 |
| 20260503045029 | 47 | 155 | 0.0 | 0.0 | 0.00 | 0.01 | 0.01 | 94 | 1001.6 |
| 20260503044526 | 46 | 246 | 2.0 | 2.0 | 0.00 | 0.01 | 0.01 | 98 | 1001.8 |
| 20260503044024 | 46 | 141 | 0.0 | 0.0 | 0.00 | 0.01 | 0.01 | 98 | 1001.3 |
| 20260503043519 | 46 | 229 | 0.0 | 0.0 | 0.00 | 0.01 | 0.01 | 97 | 1001.5 |
| 20260503043016 | 46 | 324 | 0.0 | 0.0 | 0.00 | 0.01 | 0.01 | 97 | 1001.5 |
| 20260503042513 | 46 | 112 | 0.0 | 0.0 | 0.00 | 0.01 | 0.01 | 97 | 1001.6 |
| 20260503042009 | 46 | 77 | 0.0 | 0.0 | 0.00 | 0.01 | 0.01 | 97 | 1001.8 |
| 20260503041507 | 47 | 72 | 0.0 | 0.0 | 0.00 | 0.01 | 0.01 | 97 | 1001.8 |
| 20260503041004 | 47 | 72 | 0.0 | 0.0 | 0.00 | 0.01 | 0.01 | 96 | 1001.7 |
| 20260503040501 | 47 | 72 | 0.0 | 0.0 | 0.00 | 0.01 | 0.01 | 96 | 1001.6 |
| 20260503035958 | 47 | 82 | 0.0 | 0.0 | 0.00 | 0.01 | 0.01 | 96 | 1001.8 |
| 20260503035455 | 47 | 83 | 0.0 | 0.0 | 0.00 | 0.01 | 0.01 | 96 | 1002.0 |
| 20260503034953 | 47 | 83 | 0.0 | 0.0 | 0.00 | 0.01 | 0.01 | 96 | 1002.1 |
| 20260503034450 | 47 | 83 | 0.0 | 0.0 | 0.00 | 0.01 | 0.01 | 96 | 1001.8 |
| 20260503033947 | 47 | 81 | 0.0 | 0.0 | 0.00 | 0.01 | 0.01 | 97 | 1002.0 |
| 20260503033444 | 47 | 81 | 0.0 | 0.0 | 0.00 | 0.01 | 0.01 | 97 | 1002.0 |
| 20260503032942 | 47 | 81 | 0.0 | 0.0 | 0.00 | 0.01 | 0.01 | 97 | 1002.1 |
| 20260503032440 | 47 | 80 | 0.0 | 0.0 | 0.00 | 0.01 | 0.01 | 97 | 1002.2 |
| 20260503031937 | 47 | 80 | 0.0 | 0.0 | 0.00 | 0.01 | 0.01 | 97 | 1002.2 |
| 20260503031435 | 47 | 81 | 0.0 | 0.0 | 0.00 | 0.01 | 0.01 | 96 | 1002.2 |
| 20260503030932 | 47 | 81 | 0.0 | 0.0 | 0.00 | 0.01 | 0.01 | 96 | 1002.3 |
| 20260503030428 | 47 | 81 | 0.0 | 0.0 | 0.00 | 0.01 | 0.01 | 96 | 1002.6 |
| 20260503025925 | 47 | 81 | 0.0 | 0.0 | 0.00 | 0.01 | 0.01 | 96 | 1002.4 |
| 20260503025422 | 48 | 81 | 0.0 | 0.0 | 0.00 | 0.01 | 0.01 | 96 | 1002.4 |
| 20260503024920 | 48 | 81 | 0.0 | 0.0 | 0.00 | 0.01 | 0.01 | 96 | 1002.7 |
| 20260503024416 | 48 | 81 | 0.0 | 0.0 | 0.00 | 0.01 | 0.01 | 95 | 1002.7 |
| 20260503023914 | 48 | 80 | 0.0 | 0.0 | 0.00 | 0.01 | 0.01 | 95 | 1002.8 |
| 20260503023410 | 48 | 88 | 0.0 | 0.0 | 0.00 | 0.01 | 0.01 | 96 | 1002.8 |
| 20260503022907 | 48 | 88 | 0.0 | 0.0 | 0.00 | 0.01 | 0.01 | 96 | 1002.7 |
| 20260503022402 | 48 | 88 | 0.0 | 0.0 | 0.00 | 0.01 | 0.01 | 98 | 1003.2 |
| 20260503021858 | 48 | 75 | 0.0 | 0.0 | 0.00 | 0.01 | 0.01 | 98 | 1003.1 |
| 20260503021355 | 48 | 66 | 0.0 | 0.0 | 0.00 | 0.01 | 0.01 | 97 | 1003.1 |
| 20260503020852 | 48 | 65 | 0.0 | 0.0 | 0.00 | 0.01 | 0.01 | 97 | 1003.0 |
| 20260503020350 | 48 | 64 | 0.0 | 0.0 | 0.00 | 0.01 | 0.01 | 96 | 1003.1 |
| 20260503015846 | 48 | 64 | 0.0 | 0.0 | 0.00 | 0.01 | 0.01 | 96 | 1003.4 |
| 20260503015343 | 48 | 15 | 0.0 | 0.0 | 0.00 | 0.01 | 0.01 | 93 | 1003.5 |
| 20260503014839 | 49 | 33 | 0.0 | 0.0 | 0.00 | 0.01 | 0.01 | 94 | 1003.3 |
| 20260503014337 | 49 | 65 | 0.0 | 0.0 | 0.00 | 0.01 | 0.01 | 94 | 1003.4 |
| 20260503013834 | 49 | 65 | 0.0 | 0.0 | 0.00 | 0.01 | 0.01 | 93 | 1003.5 |
| 20260503013331 | 49 | 65 | 0.0 | 0.0 | 0.00 | 0.01 | 0.01 | 92 | 1003.6 |
| 20260503012828 | 49 | 65 | 0.0 | 0.0 | 0.00 | 0.01 | 0.01 | 91 | 1003.4 |
| 20260503012326 | 49 | 65 | 0.0 | 0.0 | 0.00 | 0.01 | 0.01 | 91 | 1003.5 |
| 20260503011822 | 49 | 64 | 0.0 | 0.0 | 0.00 | 0.01 | 0.01 | 92 | 1003.5 |
| 20260503011320 | 49 | 64 | 0.0 | 0.0 | 0.00 | 0.01 | 0.01 | 92 | 1003.5 |
| 20260503010816 | 49 | 64 | 0.0 | 0.0 | 0.07 | 0.01 | 0.01 | 92 | 1003.6 |
| 20260503010313 | 49 | 69 | 0.0 | 0.0 | 0.07 | 0.01 | 0.01 | 91 | 1003.7 |
| 20260503005810 | 50 | 65 | 0.0 | 0.0 | 0.00 | 0.00 | 0.00 | 91 | 1003.8 |
| 20260503005307 | 51 | 92 | 0.0 | 0.0 | 0.00 | 0.00 | 0.00 | 86 | 1003.9 |
| 20260503004803 | 52 | 256 | 0.0 | 0.0 | 0.00 | 0.00 | 0.00 | 80 | 1004.1 |
| 20260503004301 | 53 | 297 | 0.0 | 1.0 | 0.00 | 0.00 | 0.00 | 74 | 1004.3 |
| 20260503003758 | 54 | 288 | 1.0 | 2.0 | 0.00 | 0.00 | 0.00 | 70 | 1004.3 |
| 20260503003255 | 55 | 271 | 2.0 | 2.0 | 0.00 | 0.00 | 0.00 | 64 | 1004.3 |
| 20260503002752 | 56 | 247 | 2.0 | 2.0 | 0.00 | 0.00 | 0.00 | 60 | 1004.2 |
| 20260503002248 | 56 | 234 | 0.0 | 1.0 | 0.00 | 0.00 | 0.00 | 58 | 1004.1 |
| 20260503001745 | 56 | 266 | 0.0 | 1.0 | 0.00 | 0.00 | 0.00 | 57 | 1004.1 |
| 20260503001241 | 57 | 268 | 1.0 | 2.0 | 0.00 | 0.00 | 0.00 | 55 | 1004.1 |
| 20260503000740 | 57 | 321 | 1.0 | 2.0 | 0.00 | 0.00 | 0.00 | 53 | 1004.1 |
| 20260503000237 | 58 | 205 | 2.0 | 2.0 | 0.00 | 0.00 | 0.00 | 51 | 1004.0 |
| 20260502235733 | 58 | 271 | 4.0 | 6.0 | 0.00 | 0.00 | 0.00 | 49 | 1003.9 |
| 20260502235231 | 59 | 289 | 2.0 | 4.0 | 0.00 | 0.00 | 0.00 | 48 | 1003.7 |
| 20260502234727 | 59 | 233 | 0.0 | 1.0 | 0.00 | 0.00 | 0.00 | 47 | 1003.8 |
| 20260502234225 | 59 | 337 | 1.0 | 1.0 | 0.00 | 0.00 | 0.00 | 46 | 1003.7 |
| 20260502233720 | 59 | 304 | 5.0 | 7.0 | 0.00 | 0.00 | 0.00 | 44 | 1003.8 |
| 20260502233217 | 60 | 279 | 4.0 | 7.0 | 0.00 | 0.00 | 0.00 | 43 | 1003.7 |
| 20260502232712 | 60 | 266 | 0.0 | 0.0 | 0.00 | 0.00 | 0.00 | 43 | 1003.4 |
| 20260502232210 | 60 | 233 | 0.0 | 0.0 | 0.00 | 0.00 | 0.00 | 42 | 1003.5 |
| 20260502231707 | 60 | 242 | 0.0 | 0.0 | 0.00 | 0.00 | 0.00 | 43 | 1003.4 |
| 20260502231205 | 60 | 235 | 0.0 | 0.0 | 0.00 | 0.00 | 0.00 | 41 | 1003.6 |
| 20260502230704 | 61 | 257 | 1.0 | 1.0 | 0.00 | 0.00 | 0.00 | 41 | 1003.6 |
| 20260502230202 | 61 | 246 | 0.0 | 1.0 | 0.00 | 0.00 | 0.00 | 40 | 1003.6 |
| 20260502225657 | 61 | 261 | 1.0 | 2.0 | 0.00 | 0.00 | 0.00 | 40 | 1003.5 |
| 20260502225154 | 61 | 262 | 1.0 | 2.0 | 0.00 | 0.00 | 0.00 | 40 | 1003.7 |
| 20260502224650 | 61 | 333 | 1.0 | 1.0 | 0.00 | 0.00 | 0.00 | 39 | 1003.5 |
| 20260502224146 | 62 | 227 | 2.0 | 2.0 | 0.00 | 0.00 | 0.00 | 37 | 1003.4 |
| 20260502223644 | 62 | 242 | 2.0 | 3.0 | 0.00 | 0.00 | 0.00 | 37 | 1003.4 |
| 20260502223142 | 62 | 307 | 1.0 | 2.0 | 0.00 | 0.00 | 0.00 | 36 | 1003.5 |
| 20260502222634 | 63 | 255 | 1.0 | 1.0 | 0.00 | 0.00 | 0.00 | 36 | 1003.4 |
| 20260502222131 | 63 | 172 | 2.0 | 3.0 | 0.00 | 0.00 | 0.00 | 36 | 1003.3 |
| 20260502221626 | 63 | 247 | 3.0 | 4.0 | 0.00 | 0.00 | 0.00 | 36 | 1003.5 |
| 20260502221123 | 64 | 233 | 1.0 | 1.0 | 0.00 | 0.00 | 0.00 | 36 | 1003.3 |
| 20260502220619 | 64 | 271 | 1.0 | 1.0 | 0.00 | 0.00 | 0.00 | 37 | 1003.4 |
| 20260502220115 | 64 | 134 | 1.0 | 1.0 | 0.00 | 0.00 | 0.00 | 35 | 1003.5 |
| 20260502215613 | 64 | 247 | 0.0 | 0.0 | 0.00 | 0.00 | 0.00 | 34 | 1003.4 |
| 20260502215110 | 64 | 216 | 1.0 | 1.0 | 0.00 | 0.00 | 0.00 | 35 | 1003.5 |
| 20260502214607 | 64 | 261 | 1.0 | 1.0 | 0.00 | 0.00 | 0.00 | 35 | 1003.6 |
| 20260502214104 | 63 | 279 | 0.0 | 1.0 | 0.00 | 0.00 | 0.00 | 38 | 1003.8 |